"America/Chicago Time","Lifetime Energy (kWh)","Power (W)","AC Volts RMS (V) ","AC Amps RMS (mA)","Grid Frequency (Hz)","Inverter Temperature (C)"
"05/09/12 09:22:01","66.9345","118.1","218.03","550","60.0","20"
"05/09/12 09:27:00","66.9438","121.9","217.79","567","60.03","20"
"05/09/12 09:32:00","66.9534","124.4","217.61","578","60.03","20"
"05/09/12 09:37:00","66.9632","125.5","217.64","582","60.03","21"
"05/09/12 09:42:00","66.9731","129.3","217.6","599","60.03","20"
"05/09/12 09:47:00","66.9833","131.4","217.79","610","60.03","20"
"05/09/12 09:51:59","66.9935","132.8","217.51","616","60.0","22"
"05/09/12 09:57:00","67.004","136.6","218.51","630","60.07","21"
"05/09/12 10:01:59","67.0148","139.2","218.87","642","60.03","22"
"05/09/12 10:07:00","67.0257","141.4","218.26","644","59.96","22"
"05/09/12 10:11:59","67.0367","144.9","218.43","665","60.03","22"
"05/09/12 10:17:00","67.0481","146.7","218.47","672","60.0","22"
"05/09/12 10:22:00","67.0595","145.9","218.19","671","60.03","22"
"05/09/12 10:27:00","67.0711","147.6","218.73","672","60.0","23"
"05/09/12 10:31:59","67.0825","150.0","218.39","679","60.0","23"
"05/09/12 10:36:59","67.0943","151.1","218.6","690","60.03","23"
"05/09/12 10:42:00","67.1062","152.8","219.05","696","60.03","23"
"05/09/12 10:47:00","67.1182","154.7","218.61","706","60.0","23"
"05/09/12 10:52:00","67.1303","155.6","218.88","705","60.03","23"
"05/09/12 10:57:00","67.1424","156.0","219.0","704","60.03","23"
"05/09/12 11:02:00","67.1546","158.2","219.42","714","60.03","23"
"05/09/12 11:07:01","67.1671","161.4","218.59","734","60.0","23"
"05/09/12 11:11:59","67.1796","161.0","218.77","734","60.07","23"
"05/09/12 11:17:00","67.1796","160.9","218.87","727","60.03","23"
"05/09/12 11:22:00","67.1922","163.7","218.89","740","60.03","23"
"05/09/12 11:26:59","67.2049","163.7","219.29","737","60.03","23"
"05/09/12 11:32:00","67.2178","164.4","218.59","745","60.0","24"
"05/09/12 11:37:00","67.2306","164.0","218.04","742","60.0","24"
"05/09/12 11:41:59","67.2433","163.7","218.41","744","60.07","25"
"05/09/12 11:47:01","67.2561","165.8","218.13","753","60.03","26"
"05/09/12 11:52:00","67.269","165.1","218.49","748","60.0","26"
"05/09/12 11:56:59","67.2821","167.6","218.29","760","60.03","26"
"05/09/12 12:01:59","67.2953","169.8","218.94","765","60.03","26"
"05/09/12 12:07:00","67.3086","167.9","218.5","757","60.0","27"
"05/09/12 12:11:59","67.3217","171.2","218.73","775","60.0","26"
"05/09/12 12:17:00","67.3351","172.9","219.13","778","60.03","25"
"05/09/12 12:22:00","67.3483","167.8","218.8","757","60.03","26"
"05/09/12 12:26:59","67.3614","168.9","218.89","764","60.03","26"
"05/09/12 12:31:59","67.3745","169.8","218.71","765","60.0","26"
"05/09/12 12:37:01","67.3877","166.4","219.04","756","60.03","27"
"05/09/12 12:41:59","67.4006","167.4","217.88","760","60.0","26"
"05/09/12 12:46:59","67.4137","167.7","218.3","761","60.03","26"
"05/09/12 12:52:00","67.4269","168.1","217.38","759","60.03","26"
"05/09/12 12:57:00","67.4399","167.9","219.03","758","60.0","26"
"05/09/12 13:02:01","67.453","168.1","219.33","757","60.0","26"
"05/09/12 13:06:59","67.4659","164.2","218.29","744","60.03","26"
"05/09/12 13:12:00","67.4786","163.3","219.05","740","60.03","27"
"05/09/12 13:17:00","67.4913","162.9","217.56","740","60.03","27"
"05/09/12 13:22:01","67.504","162.0","217.45","740","60.03","27"
"05/09/12 13:27:00","67.5167","162.5","218.12","742","60.03","27"
"05/09/12 13:31:59","67.5291","160.9","217.29","735","60.03","27"
"05/09/12 13:37:00","67.5418","160.8","218.1","731","60.03","27"
"05/09/12 13:42:00","67.5542","159.2","218.05","729","60.03","27"
"05/09/12 13:47:00","67.5666","160.3","217.46","730","60.03","27"
"05/09/12 13:52:01","67.579","157.0","217.17","719","60.03","27"
"05/09/12 13:57:00","67.5911","155.8","218.41","708","60.03","27"
"05/09/12 14:01:59","67.6032","155.6","217.56","712","60.0","26"
"05/09/12 14:06:59","67.6153","153.4","217.51","702","60.03","26"
"05/09/12 14:12:00","67.6272","153.4","217.74","696","60.0","26"
"05/09/12 14:16:59","67.639","150.8","217.99","688","60.03","26"
"05/09/12 14:22:01","67.6508","149.9","218.12","685","60.03","25"
"05/09/12 14:26:59","67.6623","148.2","218.82","675","60.03","25"
"05/09/12 14:31:59","67.6737","145.3","217.97","665","60.03","26"
"05/09/12 14:37:00","67.6849","143.4","218.35","659","60.03","26"
"05/09/12 14:42:00","67.6961","141.6","217.95","652","60.0","26"
"05/09/12 14:46:59","67.707","140.7","217.82","650","60.03","26"
"05/09/12 14:52:01","67.718","140.5","217.06","645","60.03","25"
"05/09/12 14:57:00","67.7288","136.6","217.53","633","60.03","25"
"05/09/12 15:02:00","67.7392","134.2","217.76","623","60.03","25"
"05/09/12 15:07:00","67.7496","132.5","216.84","614","60.0","25"
"05/09/12 15:12:00","67.7598","128.5","218.13","592","60.03","26"
"05/09/12 15:17:00","67.7697","125.8","217.76","585","60.03","26"
"05/09/12 15:22:01","67.7795","124.5","217.63","579","60.03","26"
"05/09/12 15:26:59","67.7891","122.0","218.34","569","60.03","25"
"05/09/12 15:32:01","67.7986","119.9","217.81","562","60.03","25"
"05/09/12 15:37:00","67.8078","117.6","218.02","549","60.03","25"
"05/09/12 15:41:59","67.8168","114.1","217.82","529","60.0","26"
"05/09/12 15:47:00","67.8257","111.9","217.63","525","60.0","26"
"05/09/12 15:52:00","67.8343","110.0","218.47","511","60.03","25"
"05/09/12 15:57:00","67.8427","107.1","218.37","505","60.03","25"
"05/09/12 16:02:00","67.8509","104.5","218.2","490","60.03","25"
"05/09/12 16:07:00","67.8589","101.2","217.96","479","60.03","25"
"05/09/12 16:12:00","67.8666","97.5","217.9","466","60.03","25"
"05/09/12 16:17:00","67.8741","94.8","217.52","449","60.0","25"
"05/09/12 16:22:01","67.8813","91.8","216.93","440","60.03","24"
"05/09/12 16:27:00","67.8883","88.3","217.24","426","60.03","24"
"05/09/12 16:32:00","67.8951","85.9","216.93","417","60.03","24"
"05/09/12 16:36:59","67.9016","82.9","216.46","401","60.03","23"
"05/09/12 16:41:59","67.9079","79.2","216.36","388","60.03","23"
"05/09/12 16:47:00","67.9139","75.7","216.12","373","60.03","23"
"05/09/12 16:52:00","67.9196","72.3","215.83","353","60.0","23"
"05/09/12 16:57:00","67.9251","68.2","216.79","339","60.03","22"
"05/09/12 17:02:00","67.9303","64.5","216.49","322","60.03","22"
"05/09/12 17:07:00","67.935","42.0","215.81","389","60.0","22"
"05/09/12 17:12:03","67.9389","44.0","215.64","318","60.03","22"
"05/09/12 17:17:04","67.9428","45.8","215.41","86","60.0","22"
"05/09/12 17:22:03","67.9466","50.1","215.79","343","60.03","22"
"05/09/12 17:27:04","67.9503","47.8","215.33","327","60.03","22"
"05/09/12 17:32:05","67.9535","35.1","214.86","186","60.0","22"
"05/09/12 17:37:04","67.9565","36.3","214.87","83","60.03","21"
"05/09/12 17:42:03","67.9591","36.8","214.1","74","60.03","21"
"05/09/12 17:47:04","67.9614","31.9","214.95","222","60.03","20"
"05/09/12 17:52:04","67.9632","21.8","214.79","38","60.03","19"
"05/09/12 17:57:05","67.9649","26.4","214.98","28","60.03","19"
"05/09/12 18:02:03","67.9663","16.1","214.11","5","60.03","19"
"05/09/12 18:07:05","67.9675","17.2","214.35","78","60.0","18"
"05/09/12 18:12:04","67.9684","13.1","214.4","136","60.03","18"
"05/09/12 18:17:04","67.9692","13.2","214.21","1","60.03","18"
"05/09/12 18:22:03","67.9697","12.1","213.55","188","60.0","18"
"05/09/12 18:27:04","67.9702","5.4","213.4","221","60.03","18"
"05/09/12 18:32:03","67.9706","0.0","214.28","0","60.0","17"
"05/09/12 18:37:04","67.971","0.0","214.28","0","60.03","17"
"05/09/12 18:42:05","67.9713","8.2","213.74","0","60.07","17"
"05/09/12 18:47:03","67.9717","10.8","214.07","0","60.03","17"
"05/09/12 18:52:04","67.972","1.2","212.97","0","60.03","17"
"05/09/12 18:57:05","67.9723","8.4","213.55","0","60.0","17"
"05/09/12 19:02:03","67.9725","0.0","213.43","71","60.03","17"
"05/09/12 19:07:05","67.9728","0.0","214.12","0","60.0","17"
"05/09/12 19:12:04","67.973","0.0","213.8","0","60.0","17"
"05/09/12 19:17:04","67.9732","0.0","213.29","0","60.0","16"
"05/09/12 19:27:05","67.9735","0.0","213.89","0","60.03","15"
"05/10/12 06:17:07","67.9738","0.0","213.25","0","60.03","12"
"05/10/12 06:22:04","67.974","0.0","213.32","0","60.03","13"
"05/10/12 06:27:05","67.9743","10.4","213.97","44","60.03","13"
"05/10/12 06:32:05","67.9747","0.0","213.44","0","60.03","13"
"05/10/12 06:37:04","67.9753","15.4","213.79","0","60.03","13"
"05/10/12 06:42:04","67.976","0.0","213.5","0","60.03","13"
"05/10/12 06:47:04","67.977","6.5","213.65","1","60.03","14"
"05/10/12 06:52:04","67.9781","16.8","213.28","3","60.03","14"
"05/10/12 06:57:04","67.9795","19.2","213.94","157","60.07","15"
"05/10/12 07:02:05","67.9812","22.3","214.69","14","60.0","15"
"05/10/12 07:07:05","67.9828","12.4","214.09","135","60.0","15"
"05/10/12 07:12:05","67.9843","21.1","215.38","248","60.0","15"
"05/10/12 07:17:04","67.9859","29.9","215.28","44","60.0","16"
"05/10/12 07:22:05","67.9878","43.2","214.66","148","60.03","16"
"05/10/12 07:27:04","67.9909","47.4","214.95","291","60.03","17"
"05/10/12 07:32:05","67.9942","40.2","214.46","157","60.03","17"
"05/10/12 07:37:04","67.9979","50.3","214.06","365","60.03","17"
"05/10/12 07:42:04","68.0017","54.5","213.87","242","60.0","18"
"05/10/12 07:47:05","68.0057","47.4","214.28","341","60.0","18"
"05/10/12 07:52:04","68.0095","41.2","215.57","347","60.07","18"
"05/10/12 07:57:05","68.0134","47.1","215.65","120","60.0","19"
"05/10/12 08:02:05","68.0174","42.9","216.31","402","60.03","19"
"05/10/12 08:07:04","68.0216","52.5","215.7","96","60.03","19"
"05/10/12 08:12:05","68.026","64.3","216.04","391","60.03","20"
"05/10/12 08:17:05","68.0307","77.8","215.36","383","60.0","20"
"05/10/12 08:22:05","68.0369","81.7","215.12","399","60.0","20"
"05/10/12 08:27:06","68.0434","84.9","214.36","414","60.03","20"
"05/10/12 08:32:05","68.0501","88.1","214.6","430","60.03","20"
"05/10/12 08:37:04","68.0571","91.3","215.35","440","60.0","21"
"05/10/12 08:42:05","68.0643","94.9","215.27","453","60.03","21"
"05/10/12 08:47:05","68.0718","97.5","214.49","470","60.03","22"
"05/10/12 08:52:05","68.0795","100.5","214.6","484","60.07","22"
"05/10/12 08:57:05","68.0874","104.0","215.9","493","60.03","22"
"05/10/12 09:02:05","68.0957","106.9","215.9","505","60.03","23"
"05/10/12 09:07:05","68.1041","109.1","216.02","520","60.03","23"
"05/10/12 09:12:05","68.1127","111.6","215.66","526","60.03","23"
"05/10/12 09:17:05","68.1215","114.6","216.95","534","60.03","24"
"05/10/12 09:22:05","68.1305","117.9","217.36","547","60.03","24"
"05/10/12 09:27:05","68.1398","120.0","217.4","560","60.03","24"
"05/10/12 09:32:04","68.1491","122.5","217.59","574","60.03","24"
"05/10/12 09:37:05","68.1589","125.0","217.0","582","60.03","24"
"05/10/12 09:42:04","68.1686","126.9","217.6","588","60.0","24"
"05/10/12 09:47:04","68.1786","129.3","216.91","601","60.0","25"
"05/10/12 09:52:05","68.1888","131.7","217.1","612","60.03","25"
"05/10/12 09:57:04","68.1991","133.1","217.24","616","60.03","25"
"05/10/12 10:02:04","68.2095","135.3","217.63","627","60.03","26"
"05/10/12 10:07:04","68.2202","137.2","217.64","633","60.0","26"
"05/10/12 10:12:05","68.2309","139.6","217.28","643","60.03","26"
"05/10/12 10:17:05","68.2418","141.3","218.14","645","60.0","26"
"05/10/12 10:22:04","68.2528","142.8","218.47","654","60.03","26"
"05/10/12 10:27:04","68.264","143.9","218.51","661","60.0","27"
"05/10/12 10:32:06","68.2752","144.6","218.38","665","60.03","27"
"05/10/12 10:37:05","68.2866","146.2","217.1","666","60.03","28"
"05/10/12 10:42:04","68.298","147.9","217.54","679","60.0","28"
"05/10/12 10:47:05","68.3097","149.9","217.97","687","60.0","28"
"05/10/12 10:52:04","68.3214","151.5","218.36","691","60.07","28"
"05/10/12 10:57:04","68.3332","152.6","218.02","696","60.03","28"
"05/10/12 11:02:05","68.3451","153.5","218.51","698","60.0","28"
"05/10/12 11:07:05","68.3572","154.9","219.38","706","60.03","29"
"05/10/12 11:12:05","68.3692","154.8","218.97","704","60.03","29"
"05/10/12 11:17:04","68.3813","156.2","219.02","706","60.03","29"
"05/10/12 11:22:05","68.3936","157.9","218.88","719","60.03","29"
"05/10/12 11:27:05","68.406","157.9","218.35","716","60.03","29"
"05/10/12 11:32:05","68.4183","158.6","218.53","720","60.0","29"
"05/10/12 11:37:05","68.4307","159.8","218.67","724","60.0","29"
"05/10/12 11:42:06","68.4432","160.3","218.99","729","60.0","30"
"05/10/12 11:47:05","68.4557","160.8","218.94","731","60.03","30"
"05/10/12 11:52:05","68.4683","161.0","219.04","732","60.03","30"
"05/10/12 11:57:06","68.4809","161.4","218.46","735","60.03","30"
"05/10/12 12:02:04","68.4934","161.8","218.34","733","60.0","30"
"05/10/12 12:07:06","68.5061","163.2","218.53","739","60.0","30"
"05/10/12 12:12:04","68.5187","163.6","218.62","742","60.03","30"
"05/10/12 12:17:05","68.5315","162.9","218.8","739","60.03","30"
"05/10/12 12:22:04","68.5442","163.2","218.87","735","60.03","30"
"05/10/12 12:27:05","68.5569","163.3","218.56","739","60.0","30"
"05/10/12 12:32:05","68.5697","163.7","218.77","740","60.03","30"
"05/10/12 12:37:06","68.5824","162.7","218.91","739","60.03","30"
"05/10/12 12:42:05","68.595","161.8","218.99","731","60.03","31"
"05/10/12 12:47:04","68.6077","162.3","218.28","736","60.03","31"
"05/10/12 12:52:04","68.6204","163.0","218.76","738","60.0","30"
"05/10/12 12:57:05","68.633","162.0","218.36","736","60.03","30"
"05/10/12 13:02:05","68.6456","160.2","218.61","730","60.03","31"
"05/10/12 13:07:05","68.6581","160.0","218.25","728","60.0","31"
"05/10/12 13:12:05","68.6705","159.7","218.28","720","60.03","31"
"05/10/12 13:17:05","68.683","159.1","218.26","721","60.03","31"
"05/10/12 13:22:05","68.6953","157.8","218.13","719","60.03","31"
"05/10/12 13:27:05","68.7077","158.3","218.23","722","60.03","31"
"05/10/12 13:32:06","68.72","156.9","218.44","714","60.0","31"
"05/10/12 13:37:05","68.7321","155.7","218.9","706","60.03","31"
"05/10/12 13:42:05","68.7442","155.3","217.99","705","60.03","32"
"05/10/12 13:47:04","68.7562","154.2","219.25","696","60.0","32"
"05/10/12 13:52:05","68.7681","152.1","218.99","690","60.0","32"
"05/10/12 13:57:05","68.7798","150.3","219.5","682","60.03","32"
"05/10/12 14:02:05","68.7916","149.0","219.37","678","60.03","32"
"05/10/12 14:07:04","68.8031","148.0","219.37","675","60.03","32"
"05/10/12 14:12:06","68.8146","146.9","219.18","669","60.0","33"
"05/10/12 14:17:04","68.826","146.0","218.59","668","60.0","32"
"05/10/12 14:22:05","68.8373","144.7","219.47","659","60.03","32"
"05/10/12 14:27:04","68.8485","143.0","218.73","655","60.03","32"
"05/10/12 14:32:05","68.8597","141.4","219.21","642","60.03","32"
"05/10/12 14:37:04","68.8707","139.7","219.08","636","60.0","31"
"05/10/12 14:42:05","68.8815","137.9","218.82","633","60.0","32"
"05/10/12 14:47:04","68.8922","135.9","219.2","626","60.03","31"
"05/10/12 14:52:06","68.9027","133.3","218.6","611","60.03","32"
"05/10/12 14:57:04","68.913","132.4","217.62","610","60.0","31"
"05/10/12 15:02:05","68.9233","131.0","218.74","608","60.03","30"
"05/10/12 15:07:05","68.9334","127.6","218.46","588","60.03","31"
"05/10/12 15:12:04","68.9431","125.7","218.51","583","60.0","31"
"05/10/12 15:17:05","68.9529","123.8","218.21","571","60.03","31"
"05/10/12 15:22:04","68.9625","122.6","218.33","567","60.0","30"
"05/10/12 15:27:05","68.9719","119.2","217.64","555","60.03","31"
"05/10/12 15:32:04","68.9811","117.3","218.12","548","60.0","30"
"05/10/12 15:37:05","68.9902","114.8","218.12","535","60.0","30"
"05/10/12 15:42:06","68.9989","111.7","217.5","525","60.03","30"
"05/10/12 15:47:04","69.0075","109.7","217.73","513","60.03","30"
"05/10/12 15:52:04","69.016","106.9","217.38","504","60.0","30"
"05/10/12 15:57:06","69.0242","104.8","216.99","493","60.07","29"
"05/10/12 16:02:05","69.0323","101.9","217.31","485","60.0","29"
"05/10/12 16:07:05","69.0401","98.8","216.89","467","60.0","29"
"05/10/12 16:12:05","69.0476","95.6","217.71","453","60.07","28"
"05/10/12 16:17:04","69.0549","92.5","217.27","441","60.0","29"
"05/10/12 16:22:05","69.0619","88.4","217.23","427","60.03","29"
"05/10/12 16:27:05","69.0687","85.5","217.94","413","60.03","28"
"05/10/12 16:32:04","69.0752","82.7","217.65","398","60.03","28"
"05/10/12 16:37:06","69.0816","79.4","216.91","386","60.0","28"
"05/10/12 16:42:05","69.0875","76.5","216.5","374","60.0","28"
"05/10/12 16:47:05","69.0934","73.0","216.47","359","60.03","28"
"05/10/12 16:52:05","69.0988","69.7","217.39","344","60.03","28"
"05/10/12 16:57:04","69.1041","65.8","216.72","330","60.03","28"
"05/10/12 17:02:04","69.109","62.0","217.29","318","60.07","28"
"05/10/12 17:07:05","69.1134","36.7","215.97","323","60.03","28"
"05/10/12 17:12:04","69.1173","56.1","215.9","377","60.03","28"
"05/10/12 17:17:04","69.1212","57.7","216.58","166","60.0","28"
"05/10/12 17:22:04","69.1249","53.4","215.93","347","60.03","28"
"05/10/12 17:27:05","69.1284","48.7","216.46","330","60.03","28"
"05/10/12 17:32:05","69.1315","43.3","216.08","244","60.03","28"
"05/10/12 17:37:06","69.1344","36.6","215.7","237","60.03","28"
"05/10/12 17:42:04","69.1369","26.8","215.75","112","60.0","28"
"05/10/12 17:47:05","69.1391","26.6","216.07","12","60.0","28"
"05/10/12 17:52:05","69.141","21.1","215.3","265","60.03","27"
"05/10/12 17:57:06","69.1427","18.5","215.83","157","60.0","27"
"05/10/12 18:02:05","69.1441","13.2","215.51","40","60.03","27"
"05/10/12 18:07:05","69.1452","13.4","216.11","4","60.03","27"
"05/10/12 18:12:04","69.1461","13.0","214.97","23","60.03","26"
"05/10/12 18:17:04","69.1469","0.0","214.55","0","60.0","26"
"05/10/12 18:22:04","69.1474","0.0","214.04","0","60.03","25"
"05/10/12 18:27:05","69.1478","0.0","214.09","62","60.03","24"
"05/10/12 18:32:04","69.1482","0.0","213.88","0","60.03","24"
"05/10/12 18:37:05","69.1485","0.0","214.37","0","60.0","23"
"05/10/12 18:42:05","69.1489","0.0","214.39","0","60.03","22"
"05/10/12 18:47:06","69.1492","10.3","214.33","13","60.03","22"
"05/10/12 18:52:05","69.1494","0.0","213.99","0","60.0","21"
"05/10/12 18:57:06","69.1497","0.0","214.05","0","60.03","21"
"05/10/12 19:02:05","69.1499","0.0","212.76","0","60.0","20"
"05/10/12 19:07:05","69.1501","0.0","213.36","0","60.03","20"
"05/10/12 19:12:05","69.1504","6.3","213.64","146","60.03","20"
"05/10/12 19:17:04","69.1506","0.0","213.58","0","60.03","19"
"05/11/12 06:27:06","69.1514","0.0","213.12","0","60.03","12"
"05/11/12 06:32:04","69.1518","0.0","213.73","0","60.0","13"
"05/11/12 06:37:04","69.1523","14.3","214.31","8","60.03","13"
"05/11/12 06:42:04","69.1531","7.1","214.35","119","60.03","13"
"05/11/12 06:47:05","69.154","10.7","214.06","2","60.03","14"
"05/11/12 06:52:06","69.1552","16.8","214.67","27","60.03","15"
"05/11/12 06:57:05","69.1566","14.7","214.67","109","60.07","15"
"05/11/12 07:02:05","69.1583","13.5","214.27","73","60.0","16"
"05/11/12 07:07:06","69.1602","32.3","214.29","49","60.0","17"
"05/11/12 07:12:06","69.1621","18.9","213.73","116","60.0","17"
"05/11/12 07:17:05","69.1642","26.7","214.82","155","60.03","18"
"05/11/12 07:22:06","69.1669","34.3","215.29","118","60.03","18"
"05/11/12 07:27:04","69.1697","29.6","215.03","88","60.0","19"
"05/11/12 07:32:06","69.1728","42.0","214.99","136","60.0","19"
"05/11/12 07:37:05","69.1765","42.0","215.24","104","60.03","20"
"05/11/12 07:42:04","69.1803","40.3","215.13","374","60.03","20"
"05/11/12 07:47:05","69.1829","34.4","214.13","252","60.0","20"
"05/11/12 07:52:06","69.1866","40.4","215.6","191","60.03","21"
"05/11/12 07:57:04","69.1907","66.3","216.12","171","60.03","22"
"05/11/12 08:02:05","69.195","56.5","215.64","179","60.0","22"
"05/11/12 08:07:05","69.1993","57.5","214.87","395","60.03","23"
"05/11/12 08:12:05","69.2035","69.5","215.57","389","60.0","23"
"05/11/12 08:17:06","69.2093","78.0","215.88","383","60.03","23"
"05/11/12 08:22:06","69.2155","81.5","216.83","397","60.03","24"
"05/11/12 08:27:06","69.2218","75.9","216.19","375","60.0","24"
"05/11/12 08:32:04","69.2278","87.5","216.45","421","60.03","24"
"05/11/12 08:37:05","69.2345","88.8","216.13","429","60.03","25"
"05/11/12 08:42:06","69.2416","89.4","216.35","433","60.03","25"
"05/11/12 08:47:05","69.2488","95.3","216.83","457","60.0","26"
"05/11/12 08:52:06","69.2562","97.2","215.88","465","60.0","26"
"05/11/12 08:57:05","69.2639","99.5","216.19","476","60.0","27"
"05/11/12 09:02:04","69.2717","100.9","216.8","480","60.0","27"
"05/11/12 09:07:06","69.2798","105.2","217.06","497","60.0","27"
"05/11/12 09:12:05","69.2881","108.2","217.47","510","60.03","28"
"05/11/12 09:17:04","69.2966","111.2","217.32","522","60.0","28"
"05/11/12 09:22:04","69.3053","113.0","216.98","531","60.03","28"
"05/11/12 09:27:05","69.3142","116.6","216.06","547","60.07","29"
"05/11/12 09:32:06","69.3234","118.1","217.12","546","60.0","29"
"05/11/12 09:37:06","69.3327","120.8","215.07","567","60.03","29"
"05/11/12 09:42:05","69.3423","124.7","217.29","577","60.03","30"
"05/11/12 09:47:06","69.352","122.4","218.12","566","60.03","30"
"05/11/12 09:52:06","69.3618","126.9","217.76","585","60.0","31"
"05/11/12 09:57:06","69.3712","117.3","216.79","551","60.0","31"
"05/11/12 10:02:05","69.3802","116.1","217.88","541","60.03","31"
"05/11/12 10:07:06","69.3896","123.8","217.86","574","60.03","32"
"05/11/12 10:12:05","69.3995","122.8","217.97","572","60.0","32"
"05/11/12 10:17:05","69.4094","130.3","218.71","600","60.03","32"
"05/11/12 10:22:06","69.4191","122.3","218.37","567","60.0","32"
"05/11/12 10:27:06","69.4285","112.0","218.02","523","60.03","32"
"05/11/12 10:32:05","69.4385","138.9","218.33","633","60.0","33"
"05/11/12 10:37:05","69.4493","141.1","218.21","646","60.0","34"
"05/11/12 10:42:06","69.4605","144.5","218.22","660","60.0","34"
"05/11/12 10:47:04","69.4717","143.5","217.89","665","60.07","35"
"05/11/12 10:52:05","69.4827","141.6","218.07","647","60.0","35"
"05/11/12 10:57:05","69.4939","147.3","219.42","675","60.07","36"
"05/11/12 11:02:05","69.5053","145.6","219.24","661","60.0","36"
"05/11/12 11:07:06","69.5168","147.1","219.26","672","60.03","37"
"05/11/12 11:12:05","69.5283","148.9","218.93","675","60.0","37"
"05/11/12 11:17:05","69.5399","149.8","219.06","686","60.03","37"
"05/11/12 11:22:06","69.5516","149.8","218.7","685","60.0","37"
"05/11/12 11:27:06","69.5633","151.8","218.62","688","60.0","38"
"05/11/12 11:32:06","69.575","152.0","218.88","689","60.0","38"
"05/11/12 11:37:06","69.5866","148.4","218.45","673","59.96","38"
"05/11/12 11:42:05","69.5979","142.1","218.37","647","60.03","37"
"05/11/12 11:47:06","69.609","138.2","219.11","630","60.03","37"
"05/11/12 11:52:06","69.6198","138.0","218.5","630","60.03","37"
"05/11/12 11:57:06","69.6303","133.4","218.3","617","60.07","36"
"05/11/12 12:02:06","69.6407","133.7","217.78","615","60.03","36"
"05/11/12 12:07:05","69.6508","139.6","219.15","638","60.0","36"
"05/11/12 12:12:04","69.6622","140.2","218.9","640","60.03","37"
"05/11/12 12:17:05","69.6736","148.6","218.62","678","60.0","37"
"05/11/12 12:22:05","69.6851","148.3","217.97","679","60.0","38"
"05/11/12 12:27:06","69.6969","153.5","218.84","698","60.03","38"
"05/11/12 12:32:04","69.7089","149.5","217.99","682","60.0","38"
"05/11/12 12:37:04","69.7205","147.0","218.1","670","60.03","38"
"05/11/12 12:42:05","69.7321","151.7","218.75","687","60.0","39"
"05/11/12 12:47:06","69.7437","146.7","218.9","672","60.03","39"
"05/11/12 12:52:06","69.7534","147.5","218.82","672","60.03","39"
"05/11/12 12:57:05","69.7647","146.6","218.75","669","60.0","39"
"05/11/12 13:02:05","69.7767","150.8","219.04","686","60.0","39"
"05/11/12 13:07:06","69.7862","139.4","218.63","638","60.0","38"
"05/11/12 13:12:05","69.7975","144.5","219.37","660","60.03","38"
"05/11/12 13:17:05","69.8079","137.6","218.05","638","60.03","38"
"05/11/12 13:22:05","69.8175","46.0","216.04","109","60.03","37"
"05/11/12 13:27:05","69.821","49.7","216.62","362","60.07","36"
"05/11/12 13:32:06","69.8244","32.9","215.28","84","60.03","34"
"05/11/12 13:37:05","69.8267","30.4","215.58","103","60.03","33"
"05/11/12 13:42:06","69.8284","21.3","214.56","33","60.0","32"
"05/11/12 13:47:05","69.8299","13.8","214.53","73","60.03","31"
"05/11/12 13:57:04","69.8343","37.2","214.91","130","60.0","28"